Location: Bouchavesnes-Bergen
(49.9859°N, 2.9203°E)
Time: 00:04:30
(UTC+00:00)

ATLAS 3B R/B - Pass Details

Date: 09 March 2021
Orbit: 1006 x 1189 km, 63.8° (Epoch: 12 April)

Event Time Altitude Azimuth Distance (km) Brightness Sun altitude
Exits shadow 03:09:26 - 318° (NW) 2,989 4.9 -29.4°
Reaches altitude 10° 03:09:47 10° 319° (NW) 2,885 4.9 -29.4°
Maximum altitude 03:15:52 33° 22° (NNE) 1,751 4.2 -28.5°
Drops below altitude 10° 03:22:11 10° 85° (E) 2,999 5.9 -27.7°
Sets 03:25:16 0° 95° (E) 3,985 6.5 -27.2°
